Погода в Томске

Хотите узнать прогноз погоды в Томске? Тогда Вам сюда: Погода в Томске

Поиск расширенной информации на нашем сайте:

Полезная информация:

Новости сайта



02.01.2020
Опубликован Долгосрочный прогноз погоды по городам России и ближнего зарубежья на январь 2020 года.
Карты: Прогноз на январь и февраль 2020 года, Сравнение прогнозируемой аномалии приземной температуры воздуха на январь 2020 года по разным моделям.




Погода в Томске - сегодня

Время (UTC), дата Ветер
(°,м/с) 
Видим.   Явления Облачность Т
(°С)
Тd
(°С)
f(%) Тe
(°С)
Pmin
(гПа)
dP
(гПа)
Po
(мм)
O2
(г/м3)
Тmin Tmax R s Состояние
почвы
03 06.04.20 090 (В) 20000 м    4/0 верхняя 
[Ci fib]
+5.8 -8.9 34 +7  1014.5  -1.6  748  296           
06 06.04.20 170 (Ю) 20000 м    3/0 верхняя 
[Ci fib]
+12 -7.8 24 +13  1012.6  -1.5  747  289           
09 06.04.20 тихо ()   20000 м    6/0 средняя 
[As op]
+13.3 -6.1 25 +13  1012.2  -0.3  747  288           
12 06.04.20 160 (Ю) 20000 м    6/0 верхняя 
[Ci fib]
+9.4 -5.7 34 +10  1013.8  1.3  748  292    +13.6       
15 06.04.20 тихо ()   20000 м    ясно 
+3.1 -3.7 61 +3  1015.6  1.4  749  299           
18 06.04.20 тихо ()   20000 м    ясно 
+1.6 -1 83 +2  1016.8  1.1  750  300           
21 06.04.20 тихо ()   20000 м    ясно 
+2.3 +0.9 90 +2  1017.5  0.8  750  300           
00 07.04.20 тихо ()   20000 м    10/0 средняя 
[As op]
+1.9 +0.7 92 +2  1018.6  751  300  +0.9      41  равномерный
мокрый или
старый снег
100% 
03 07.04.20 тихо ()   20000 м    10/10 630 м 
[Sc]
+4.6 +1.2 79 +5  1019  0.6  751  298           
06 07.04.20 160 (Ю) 20000 м    10/0 средняя 
[Ac und]
+8.8 -0.6 52 +10  1018.3  -0.5  751  293           
09 07.04.20 140 (ЮВ) 20000 м    ясно 
+11.4 -1.2 42 +13  1016.8  -1.4  750  290           
12 07.04.20 140 (ЮВ) 20000 м    ясно 
+9.2 -1.2 48 +10  1015.1  -1.7  749  292    +11.7       
15 07.04.20 080 (В) 20000 м    8/0 верхняя 
[Ci fib]
+5.4 -0.7 65 +6  1014  -1.3  748  295           
18 07.04.20 070 (В) 20000 м    6/0 верхняя 
[Ci fib]
+4.8 -0.6 68 +4  1010.7  -3.3  745  295           
21 07.04.20 090 (В) 20000 м    10/0 средняя 
[As trans]
+5.5 -0.3 66 +6  1007.5  -3.1  743  293           
00 08.04.20 170 (Ю) 20000 м    10/0 средняя 
[As trans]
+6.4 -1.5 57 +7  1007.5  743  293  +4.4      36  равномерный
мокрый или
старый снег
100% 
03 08.04.20 190 (Ю) 20000 м    10/3 1000 м средняя 
[Sc|As trans]
+7 -3.1 49 +7  1011.4  3.9  746  293           
06 08.04.20 200 (Ю) 20000 м    10/0 верхняя 
[Cs]
+7.1 -6.5 37 +7  1014.4  748  294           
09 08.04.20 170 (Ю) 20000 м    10/0 верхняя 
[Cs]
+7 -6.6 37 +8  1017.1  2.6  750  295           
12 08.04.20 190 (Ю) 20000 м    8/0 верхняя 
[Ci fib]
+3.5 -7.3 45 +4  1019.2  1.9  751  300    +7.9       
15 08.04.20 тихо ()   20000 м    10/0 верхняя 
[Ci fib]
-0.3 -6.1 65 -0  1021.5  753  304           
18 08.04.20 тихо ()   20000 м    10/0 верхняя 
[Ci fib]
-0.5 -6.3 65 -1  1022  0.4  753  305           
21 08.04.20 200 (Ю) 20000 м    10/0 верхняя 
[Ci fib]
-1.7 -6.6 69 -1  1021.8  -0.2  753  306           
00 09.04.20 180 (Ю) 20000 м    10/0 средняя, верхняя 
[Ac cast|Ci fib]
-1.5 -7.1 66 -1  1022.5  0.7  754  306  -1.8      33  мокрый или
старый снег
50-90% 
03 09.04.20 190 (Ю) 20000 м    10/0 верхняя 
[Cs]
+3.3 -6.8 47 +3  1023.1  0.9  754  301           
Время (UTC), дата Ветер
(°,м/с) 
Видим.   Явления Облачность Т
(°С)
Тd
(°С)
f(%) Тe
(°С)
Pmin
(гПа)
dP
(гПа)
Po
(мм)
O2
(г/м3)
Тmin Tmax R s Состояние
почвы

Для получения пояснительной информации подведите курсор к названию столбца.

ПОГОДА в Томске - архив

Всё, что Вы хотите узнать о погоде в Томске - удобно и подробно!

Выберите нужную дату (начиная с 1 января 2019* года) и нажмите кнопку "Найти".
Будут отображены архивные сводки погоды по пункту Томск, начиная с указанной даты.


Отображать данные в формате CSV (для использования в таблицах Excel)


Внимание! Наш архив погоды предназначен исключительно для личного некоммерческого использования в познавательных целях. Если Вам необходимы официальные справки о состоянии погоды (для производственных, юридических, коммерческих и т.п. целей), обращайтесь в органы Росгидромета.

*Примечание: данная дата относится к архиву по метеостанциям СССР (Россия, СНГ, Балтия).
Архив по метеостанциям Зарубежной Европы и Азии (кроме Китая) хранится 10 дней, по другим регионам земного шара (Китай, Африка, Америка, Австралия, Океания) - 1 день.

Томск - район местоположения метеостанции


Название, широта, долгота, высота метеостанции:
Томск 56.5°ш. 84.9°д. 139 м над ур. моря [Российская Федерация]

Дополнительная информация

В oтличие oт бoльшинства пoгoдных сайтoв мы публикуем пoдрoбную метеoинфoрмацию в детальнoм прoфессиoнальнoм фoрмате.

Характеристики температуры и влажнoсти вoздуха измеряются на высoте 2 м в тени вдали oт зданий и деревьев.
Скoрoсть ветра измеряется на высoте 10 м (на урoвне рoста челoвека скoрoсть ветра ниже в 1.5-2 раза). Если метеoстанция нахoдится в гoрoде или в лесу, тo скoрoсть ветра занижена на 2-4 м/с пo сравнению с oткрытым местoм. Скoрoсть ветра над акватoриями крупных рек и oзёр, а также на вершинах хoлмoв на 2-5 м/с выше, чем в oбычных услoвиях.
Атмoсфернoе давление в разных тoчках местнoсти мoжет значительнo oтличаться oт давления на метеoстанции, в зависимoсти oт услoвий рельефа (при пoдъёме на 10 м давление пoнижается примернo на 1 мм рт.ст.).